Date Time,Air Temp,Sky Temp,Clarity,Light Level,Rain Sensor,Readings
2010-10-19 00:00:06,16.8,3.1,13.7,0.1,2.3,112
2010-10-19 00:05:06,16.8,3.4,13.4,0.1,2.4,111
2010-10-19 00:10:06,16.9,3.1,13.7,0.1,2.4,111
2010-10-19 00:15:06,16.9,3.4,13.5,0.1,2.3,111
2010-10-19 00:20:06,16.9,4.4,12.6,0.1,2.3,112
2010-10-19 00:25:06,17.0,3.5,13.5,0.1,2.2,111
2010-10-19 00:30:06,17.0,2.2,14.8,0.1,2.2,111
2010-10-19 00:35:06,17.1,2.3,14.8,0.1,2.2,111
2010-10-19 00:40:06,17.1,3.0,14.2,0.1,2.1,112
2010-10-19 00:45:06,17.2,3.3,13.9,0.1,2.0,111
2010-10-19 00:50:06,17.3,2.4,14.8,0.1,2.5,111
2010-10-19 00:55:06,17.1,0.9,16.2,0.1,2.3,111
2010-10-19 01:00:06,17.0,0.2,16.8,0.1,2.2,112
2010-10-19 01:05:06,17.0,1.0,16.0,0.1,2.3,111
2010-10-19 01:10:06,17.0,1.2,15.8,0.1,2.2,111
2010-10-19 01:15:06,17.0,-1.2,18.2,0.2,2.2,112
2010-10-19 01:20:06,17.0,-1.2,18.2,0.2,2.2,111
2010-10-19 01:25:06,17.2,-1.9,19.0,0.2,2.2,112
2010-10-19 01:30:06,19.4,-4.5,23.9,0.1,2.1,111
2010-10-19 01:35:06,21.2,-8.0,29.2,0.2,2.4,112
2010-10-19 01:40:06,21.7,-3.7,25.3,0.2,2.3,112
2010-10-19 01:45:06,21.9,-1.1,23.0,0.2,2.3,111
2010-10-19 01:50:06,22.0,-0.5,22.5,0.1,2.3,112
2010-10-19 01:55:06,22.0,1.3,20.7,0.1,2.3,111
2010-10-19 02:00:06,20.0,0.6,19.4,0.1,2.4,111
2010-10-19 02:05:06,20.9,-2.7,23.6,0.1,2.4,112
2010-10-19 02:10:06,21.8,-4.9,26.7,0.1,2.3,111
2010-10-19 02:15:06,22.0,-5.6,27.6,0.1,2.3,112
2010-10-19 02:20:06,20.8,1.9,18.9,0.1,2.4,111
2010-10-19 02:25:06,20.5,-7.2,27.7,0.1,2.4,111
2010-10-19 02:30:06,21.7,-10.5,32.2,0.2,2.3,112
2010-10-19 02:35:06,21.8,-10.5,32.3,0.1,2.3,112
2010-10-19 02:40:06,21.9,-10.5,32.4,0.1,2.3,112
2010-10-19 02:45:06,21.9,-8.6,30.5,0.1,2.3,112
2010-10-19 02:50:06,21.9,-5.7,27.6,0.1,2.3,111
2010-10-19 02:55:06,22.0,-1.6,23.5,0.0,2.3,112
2010-10-19 03:00:06,22.1,0.2,21.9,0.1,2.3,112
2010-10-19 03:05:06,22.1,1.0,21.1,0.0,2.9,111
2010-10-19 03:10:06,22.1,0.7,21.3,0.0,2.6,111
2010-10-19 03:15:06,21.3,1.3,20.1,0.0,3.1,111
2010-10-19 03:20:06,19.2,0.9,18.3,0.0,2.3,111
2010-10-19 03:25:06,17.7,1.6,16.0,0.0,2.6,111
2010-10-19 03:30:06,17.1,0.8,16.4,0.0,4.3,111
2010-10-19 03:35:06,17.2,-3.0,20.3,0.0,2.3,112
2010-10-19 03:40:06,20.0,-9.2,29.2,0.0,2.0,111
2010-10-19 03:45:06,21.0,-9.9,30.9,0.0,2.3,112
2010-10-19 03:50:06,21.3,-10.7,31.9,0.0,2.3,112
2010-10-19 03:55:06,21.4,-13.0,34.4,0.0,2.4,111
2010-10-19 04:00:06,21.4,-13.4,34.8,0.0,2.4,112
2010-10-19 04:05:06,21.3,-12.7,34.0,0.0,2.3,111
2010-10-19 04:10:06,21.3,-6.7,28.0,0.0,2.3,112
2010-10-19 04:15:06,21.3,-1.0,22.3,0.0,2.4,111
2010-10-19 04:20:06,19.3,2.3,16.9,0.0,2.1,111
2010-10-19 04:25:06,17.5,2.9,14.6,0.0,2.2,111
2010-10-19 04:30:06,17.0,3.2,13.8,0.0,2.5,112
2010-10-19 04:35:06,16.9,1.9,15.0,0.0,4.8,111
2010-10-19 04:40:06,16.8,-0.6,17.5,0.0,3.2,111
2010-10-19 04:45:06,19.2,-6.9,26.1,0.0,3.9,112
2010-10-19 04:50:06,20.5,-9.8,30.3,0.0,2.0,112
2010-10-19 04:55:06,20.9,-9.3,30.2,0.0,2.5,112
2010-10-19 05:00:06,21.1,-2.5,23.6,0.0,2.6,111
2010-10-19 05:05:06,21.3,-1.5,22.8,0.0,2.4,111
2010-10-19 05:10:06,19.5,2.5,17.0,0.0,2.1,112
2010-10-19 05:15:06,17.6,3.8,13.8,0.0,2.7,112
2010-10-19 05:20:06,17.0,3.8,13.2,0.0,3.4,111
2010-10-19 05:25:06,16.9,4.1,12.7,0.0,4.4,112
2010-10-19 05:30:06,16.8,2.5,14.3,0.0,11.8,111
2010-10-19 05:35:06,16.6,2.5,14.1,0.0,7.2,112
2010-10-19 05:40:06,16.3,1.2,15.1,0.0,3.2,111
2010-10-19 05:45:06,16.1,2.6,13.5,0.0,2.3,112
2010-10-19 05:50:06,16.1,0.7,15.4,0.0,2.3,111
2010-10-19 05:55:06,16.1,-0.9,17.0,0.0,2.2,112
2010-10-19 06:00:06,18.7,-6.7,25.4,0.0,2.4,111
2010-10-19 06:05:06,20.0,-2.8,22.8,0.0,2.3,113
2010-10-19 06:10:06,20.5,-1.5,22.0,0.0,2.3,111
2010-10-19 06:15:06,20.3,-2.2,22.6,0.0,2.1,112
2010-10-19 06:20:06,18.4,2.8,15.6,0.0,2.3,111
2010-10-19 06:25:06,17.1,-0.6,17.6,0.0,2.3,111
2010-10-19 06:30:06,18.1,-2.0,20.1,0.1,2.3,112
2010-10-19 06:35:06,20.0,-7.1,27.0,0.1,2.3,111
2010-10-19 06:40:06,19.2,3.8,15.4,0.2,2.3,112
2010-10-19 06:45:06,17.2,4.1,13.1,0.4,2.5,112
2010-10-19 06:50:06,16.9,2.7,14.1,0.9,2.6,111
2010-10-19 06:55:06,17.5,-1.5,19.0,1.8,2.5,112
2010-10-19 07:00:06,19.1,-2.7,21.8,3.8,2.3,111
2010-10-19 07:05:06,19.8,-6.2,26.1,7.9,2.3,112
2010-10-19 07:10:06,20.9,-12.5,33.4,13.8,2.3,111
2010-10-19 07:15:06,20.8,-15.3,36.0,20.3,2.3,112
2010-10-19 07:20:06,20.5,-16.0,36.5,25.0,2.3,111
2010-10-19 07:25:06,20.4,-17.2,37.7,28.1,2.3,112
2010-10-19 07:30:06,20.4,-18.1,38.5,29.8,2.3,111
2010-10-19 07:35:06,20.4,-18.5,38.9,30.7,2.3,112
2010-10-19 07:40:06,20.3,-18.6,38.9,31.2,2.3,112
2010-10-19 07:45:06,20.3,-18.9,39.2,31.5,2.3,111
2010-10-19 07:50:06,20.3,-18.9,39.2,31.7,2.3,112
2010-10-19 07:55:06,19.9,-18.9,38.8,31.9,2.3,112
2010-10-19 08:00:06,20.3,-18.7,39.0,32.0,2.3,112
2010-10-19 08:05:06,20.3,-18.7,39.0,32.1,2.3,112
2010-10-19 08:10:06,20.3,-18.4,38.7,32.2,2.3,112
2010-10-19 08:15:06,20.3,-18.8,39.1,32.2,2.3,111
2010-10-19 08:20:06,20.3,-19.2,39.5,32.2,2.3,111
2010-10-19 08:25:06,20.3,-19.2,39.5,32.2,2.3,112
2010-10-19 08:30:06,20.3,-19.2,39.6,32.3,2.3,111
2010-10-19 08:35:06,20.4,-19.0,39.4,32.3,2.3,112
2010-10-19 08:40:06,20.5,-19.0,39.5,32.3,2.2,112
2010-10-19 08:45:06,20.6,-19.0,39.6,32.3,2.2,112
2010-10-19 08:50:06,20.6,-19.0,39.6,32.3,2.2,111
2010-10-19 08:55:06,20.6,-19.5,40.1,32.3,2.1,111
2010-10-19 09:00:06,20.6,-19.3,39.9,32.3,2.0,112
2010-10-19 09:05:06,20.7,-18.6,39.4,32.4,1.9,112
2010-10-19 09:10:06,20.8,-19.1,39.9,32.4,1.8,111
2010-10-19 09:15:06,20.9,-19.4,40.3,32.3,1.9,111
2010-10-19 09:20:06,21.0,-19.4,40.3,32.3,1.9,112
2010-10-19 09:25:06,21.1,-19.5,40.6,32.3,1.9,111
2010-10-19 09:30:06,21.2,-19.0,40.2,32.4,2.0,112
2010-10-19 09:35:06,21.2,-19.2,40.4,32.4,2.1,112
2010-10-19 09:40:06,21.3,-18.8,40.2,32.4,2.2,112
2010-10-19 09:45:06,21.5,-18.9,40.3,32.4,2.3,111
2010-10-19 09:50:06,21.5,-18.7,40.2,32.4,2.3,112
2010-10-19 09:55:06,21.6,-18.3,39.9,32.4,2.3,111
2010-10-19 10:00:06,21.7,-17.9,39.6,32.4,2.3,112
2010-10-19 10:05:06,21.9,-17.7,39.6,32.4,2.4,111
2010-10-19 10:10:06,22.0,-18.2,40.2,32.4,2.5,112
2010-10-19 10:15:06,22.0,-18.0,40.0,32.4,2.4,112
2010-10-19 10:20:06,22.1,-17.5,39.6,32.4,2.3,111
2010-10-19 10:25:06,22.3,-17.8,40.1,32.4,2.3,112
2010-10-19 10:30:07,22.4,-17.2,39.6,32.5,2.3,111
2010-10-19 10:35:07,22.5,-17.1,39.7,32.5,2.3,112
2010-10-19 10:40:07,22.2,-16.8,38.9,32.5,2.3,111
2010-10-19 10:45:07,23.0,-16.2,39.2,32.5,2.3,112
2010-10-19 10:50:07,23.8,-15.6,39.4,32.5,2.3,111
2010-10-19 10:55:07,24.6,-15.3,39.9,32.6,2.3,112
2010-10-19 11:00:07,25.1,-15.9,41.0,32.6,2.2,111
2010-10-19 11:05:07,25.3,-16.2,41.5,32.6,2.3,112
2010-10-19 11:10:07,25.5,-15.2,40.7,32.6,2.3,111
2010-10-19 11:15:07,25.6,-15.2,40.8,32.6,2.3,112
2010-10-19 11:20:07,25.7,-15.2,41.0,32.6,2.3,111
2010-10-19 11:25:07,25.9,-14.3,40.2,32.6,2.3,112
2010-10-19 11:30:07,26.0,-15.1,41.1,32.6,2.3,111
2010-10-19 11:35:07,26.0,-14.7,40.7,32.6,2.3,112
2010-10-19 11:40:07,26.0,-13.5,39.5,32.6,2.3,111
2010-10-19 11:45:07,26.2,-13.3,39.5,32.6,2.3,112
2010-10-19 11:50:07,26.2,-12.9,39.1,32.6,2.3,111
2010-10-19 11:55:07,26.2,-7.8,34.0,32.6,2.3,112
2010-10-19 12:00:07,26.1,-9.4,35.5,32.6,2.3,111
2010-10-19 12:05:07,26.2,-11.4,37.6,32.6,2.3,112
2010-10-19 12:10:07,26.2,-13.0,39.1,32.6,2.3,111
2010-10-19 12:15:07,25.8,-13.0,38.8,32.6,2.3,112
2010-10-19 12:20:07,26.2,-11.0,37.2,32.6,2.3,111
2010-10-19 12:25:07,26.1,-14.1,40.2,32.5,2.3,112
2010-10-19 12:30:07,25.4,-12.7,38.1,32.5,2.3,112
2010-10-19 12:35:07,25.8,-8.8,34.5,32.6,2.3,111
2010-10-19 12:40:07,26.1,-6.8,32.9,32.6,2.3,111
2010-10-19 12:45:07,26.2,-6.3,32.5,32.5,2.3,112
2010-10-19 12:50:07,25.2,-2.5,27.8,32.5,2.3,111
2010-10-19 12:55:07,25.1,1.2,24.0,32.6,2.3,112
2010-10-19 13:00:07,25.8,-3.6,29.4,32.6,2.3,111
2010-10-19 13:05:07,26.1,-4.1,30.2,32.6,2.3,112
2010-10-19 13:10:07,27.1,-7.4,34.5,32.6,2.2,111
2010-10-19 13:15:07,27.8,-3.0,30.9,32.6,2.3,112
2010-10-19 13:20:07,27.8,-1.8,29.6,32.6,2.3,112
2010-10-19 13:25:07,26.7,-1.7,28.3,32.5,2.2,112
2010-10-19 13:30:07,25.5,-7.3,32.8,32.5,2.3,111
2010-10-19 13:35:07,25.3,-0.3,25.6,32.6,2.3,112
2010-10-19 13:40:07,25.5,-2.2,27.7,32.6,2.3,111
2010-10-19 13:45:07,25.2,-4.8,29.9,32.6,2.3,112
2010-10-19 13:50:07,25.1,-10.2,35.3,32.5,2.3,112
2010-10-19 13:55:07,24.7,-9.3,34.0,32.6,2.3,112
2010-10-19 14:00:07,24.8,-5.9,30.7,32.5,2.3,112
2010-10-19 14:05:07,24.5,-1.0,25.5,32.5,2.3,112
2010-10-19 14:10:07,24.2,-1.3,25.6,32.5,2.3,111
2010-10-19 14:15:07,24.4,-5.8,30.3,32.5,2.3,112
2010-10-19 14:20:07,24.1,-5.6,29.7,32.5,2.2,111
2010-10-19 14:25:07,24.0,-8.4,32.5,32.6,2.2,111
2010-10-19 14:30:07,25.9,-4.7,30.6,32.6,2.3,112
2010-10-19 14:35:07,26.3,-9.1,35.4,32.5,2.3,111
2010-10-19 14:40:07,25.3,-8.8,34.1,32.5,2.3,112
2010-10-19 14:45:07,24.7,-12.9,37.6,32.5,2.3,111
2010-10-19 14:50:07,24.0,-13.7,37.7,32.5,2.2,112
2010-10-19 14:55:07,23.9,-14.0,37.9,32.5,2.2,112
2010-10-19 15:00:07,24.1,-11.7,35.8,32.5,2.3,111
2010-10-19 15:05:07,23.6,-3.8,27.4,32.5,2.3,112
2010-10-19 15:10:07,23.5,-1.1,24.6,32.5,2.3,112
2010-10-19 15:15:07,23.4,-0.3,23.6,32.4,2.3,111
2010-10-19 15:20:07,23.3,-0.9,24.2,32.5,2.3,112
2010-10-19 15:25:07,23.1,-1.9,25.0,32.5,2.3,112
2010-10-19 15:30:07,23.0,-2.0,25.0,32.5,2.3,111
2010-10-19 15:35:07,22.9,-2.8,25.7,32.5,2.3,112
2010-10-19 15:40:07,22.9,-4.6,27.5,32.5,2.3,111
2010-10-19 15:45:07,22.7,-9.5,32.2,32.5,2.3,112
2010-10-19 15:50:07,22.6,-14.2,36.8,32.5,2.2,111
2010-10-19 15:55:07,22.9,-14.8,37.6,32.6,2.3,112
2010-10-19 16:00:07,23.9,-13.5,37.3,32.6,2.3,111
2010-10-19 16:05:07,24.9,-14.4,39.4,32.6,2.3,112
2010-10-19 16:10:07,25.0,-16.8,41.8,32.5,2.3,111
2010-10-19 16:15:07,23.9,-15.8,39.7,32.5,2.3,112
2010-10-19 16:20:07,23.0,-13.4,36.4,32.5,2.3,111
2010-10-19 16:25:07,22.5,-13.0,35.6,32.5,2.3,112
2010-10-19 16:30:07,22.3,-16.3,38.6,32.5,2.3,112
2010-10-19 16:35:07,22.6,-14.7,37.4,32.6,2.3,112
2010-10-19 16:40:07,23.6,-15.3,38.9,32.6,2.3,111
2010-10-19 16:45:07,24.2,-15.6,39.8,32.6,2.3,112
2010-10-19 16:50:07,23.9,-16.4,40.3,32.6,2.2,110
2010-10-19 16:55:07,24.4,-17.6,42.0,32.5,2.1,112
2010-10-19 17:00:07,23.7,-18.5,42.2,32.5,2.3,112
2010-10-19 17:05:07,23.3,-16.4,39.7,32.6,2.3,111
2010-10-19 17:10:07,23.5,-17.0,40.4,32.6,2.3,112
2010-10-19 17:15:07,23.6,-17.2,40.8,32.6,2.3,111
2010-10-19 17:20:07,23.6,-16.8,40.3,32.6,2.3,111
2010-10-19 17:25:07,23.5,-17.4,41.0,32.5,2.3,112
2010-10-19 17:30:07,23.4,-17.0,40.4,32.5,2.3,112
2010-10-19 17:35:07,23.2,-17.4,40.6,32.5,2.3,111
2010-10-19 17:40:07,22.8,-17.6,40.5,32.5,2.3,112
2010-10-19 17:45:07,22.5,-17.5,40.0,32.4,2.3,112
2010-10-19 17:50:07,22.3,-17.4,39.7,32.3,2.3,111
2010-10-19 17:55:07,22.1,-14.0,36.1,32.1,2.3,112
2010-10-19 18:00:07,22.0,-5.4,27.4,31.8,2.5,112
2010-10-19 18:05:07,21.9,-11.9,33.8,31.2,2.3,111
2010-10-19 18:10:07,21.7,-7.2,28.9,30.5,2.3,112
2010-10-19 18:15:07,21.6,-6.1,27.7,29.8,2.4,111
2010-10-19 18:20:07,21.5,-13.9,35.4,28.1,2.5,112
2010-10-19 18:25:07,21.3,-9.5,30.8,24.3,2.6,111
2010-10-19 18:30:07,21.3,-2.4,23.8,16.2,2.7,112
2010-10-19 18:35:07,20.5,0.9,19.5,4.9,23.6,111
2010-10-19 18:40:07,17.7,0.7,17.0,1.4,21.9,111
2010-10-19 18:45:07,16.5,-0.2,16.7,1.9,5.0,112
2010-10-19 18:50:07,15.4,-1.5,16.9,2.0,2.4,111
2010-10-19 18:55:07,14.8,-1.2,16.0,1.0,2.2,112
2010-10-19 19:00:07,14.6,-0.5,15.0,0.5,2.4,112
2010-10-19 19:05:07,14.5,0.7,13.8,0.2,3.5,111
2010-10-19 19:10:07,14.6,2.2,12.4,0.2,7.5,111
2010-10-19 19:15:07,14.7,2.0,12.7,0.2,11.6,112
2010-10-19 19:20:07,14.7,-2.5,17.2,0.2,7.3,111
2010-10-19 19:25:07,16.5,-6.0,22.5,0.2,2.3,112
2010-10-19 19:30:07,18.3,-4.9,23.3,0.2,2.3,111
2010-10-19 19:35:07,18.9,-6.0,24.9,0.2,2.5,112
2010-10-19 19:40:07,19.1,-9.5,28.6,0.2,2.4,111
2010-10-19 19:45:07,19.2,-12.7,31.9,0.2,2.4,112
2010-10-19 19:50:07,19.1,-16.0,35.1,0.2,2.5,111
2010-10-19 19:55:07,19.1,-19.1,38.2,0.1,2.5,112
2010-10-19 20:00:07,19.0,-20.4,39.4,0.1,2.5,111
2010-10-19 20:05:07,18.9,-20.6,39.5,0.2,2.4,112
2010-10-19 20:10:07,18.8,-20.6,39.4,0.2,2.3,111
2010-10-19 20:15:07,18.7,-20.6,39.3,0.2,2.3,112
2010-10-19 20:20:07,18.7,-20.8,39.5,0.3,2.3,111
2010-10-19 20:25:07,18.6,-20.7,39.3,0.3,2.3,112
2010-10-19 20:30:07,18.5,-20.9,39.5,0.3,2.3,111
2010-10-19 20:35:07,18.4,-21.4,39.8,0.3,2.3,112
2010-10-19 20:40:07,18.4,-21.5,39.8,0.3,2.3,112
2010-10-19 20:45:07,18.3,-21.4,39.7,0.4,2.3,111
2010-10-19 20:50:07,18.3,-21.5,39.7,0.4,2.3,112
2010-10-19 20:55:07,18.3,-21.4,39.7,0.4,2.3,111
2010-10-19 21:00:07,18.3,-21.6,39.9,0.4,2.3,112
2010-10-19 21:05:07,18.4,-21.7,40.1,0.4,2.3,111
2010-10-19 21:10:07,18.5,-21.7,40.2,0.4,2.3,112
2010-10-19 21:15:07,18.5,-21.7,40.2,0.4,2.3,112
2010-10-19 21:20:07,18.5,-21.7,40.2,0.5,2.3,111
2010-10-19 21:25:07,18.5,-21.7,40.2,0.5,2.3,111
2010-10-19 21:30:07,18.5,-21.5,40.1,0.5,2.3,112
2010-10-19 21:35:07,18.6,-22.0,40.6,0.5,2.3,111
2010-10-19 21:40:07,18.5,-21.9,40.4,0.5,2.3,112
2010-10-19 21:45:07,18.5,-21.7,40.2,0.5,2.3,111
2010-10-19 21:50:07,18.5,-21.7,40.2,0.5,2.3,111
2010-10-19 21:55:07,18.5,-20.9,39.4,0.5,2.3,112
2010-10-19 22:00:07,18.6,-17.4,36.0,0.5,2.3,112
2010-10-19 22:05:07,18.7,-20.6,39.3,0.6,2.3,111
2010-10-19 22:10:07,18.7,-21.0,39.7,0.6,2.3,112
2010-10-19 22:15:07,18.6,-21.3,39.9,0.6,2.3,111
2010-10-19 22:20:07,18.7,-20.3,39.0,0.6,2.3,111
2010-10-19 22:25:07,18.4,-19.0,37.5,0.5,2.2,112
2010-10-19 22:30:07,18.4,-20.5,38.9,0.6,2.2,111
2010-10-19 22:35:07,18.4,-16.0,34.4,0.6,2.2,112
2010-10-19 22:40:07,18.4,-18.0,36.4,0.6,2.2,111
2010-10-19 22:45:07,18.5,-21.9,40.4,0.6,2.2,112
2010-10-19 22:50:07,18.4,-22.3,40.8,0.6,2.3,111
2010-10-19 22:55:07,18.4,-22.0,40.4,0.6,2.3,112
2010-10-19 23:00:07,18.4,-21.9,40.4,0.6,2.3,112
2010-10-19 23:05:07,18.4,-22.2,40.6,0.6,2.3,111
2010-10-19 23:10:07,18.4,-22.7,41.1,0.6,2.3,112
2010-10-19 23:15:07,18.4,-22.2,40.6,0.6,2.3,111
2010-10-19 23:20:07,18.4,-22.0,40.4,0.6,2.3,112
2010-10-19 23:25:07,18.4,-23.0,41.4,0.6,2.3,112
2010-10-19 23:30:07,18.2,-22.4,40.7,0.6,2.2,111
2010-10-19 23:35:07,18.2,-22.7,40.9,0.6,2.2,111
2010-10-19 23:40:07,18.1,-22.5,40.6,0.6,2.1,112
2010-10-19 23:45:07,18.0,-23.3,41.3,0.6,2.2,112
2010-10-19 23:50:07,18.0,-23.7,41.8,0.6,2.2,111
2010-10-19 23:55:07,17.9,-23.4,41.3,0.6,2.3,112
